Powrót do katalogu

STARLINK-2217

AktywnyŁącznośćVLEO
NORAD 48568·PAYLOAD·🇺🇸 United States

Wystrzelony May 15, 2021 z Cape Canaveral Space Force Station

Loading…

Następne Przeloty (najbliższe 24 godziny)

TLE

ŚwieżeSource: CelesTrak SupGP

Epoka: Sep 14, 2026, 21:55 UTC

1 48568C 21041R   26257.91368056 -.00019459  00000+0 -62546-3 0  2571
2 48568  53.1589 326.5383 0001003  82.7598 150.5025 15.31726305    19

Śledź STARLINK-2217 w czasie rzeczywistym z AllMySat

Download on the App Store